{"data":{"norad_id":63030,"epoch":"2026-05-25T01:32:43.118016Z","epoch_age_seconds":69678,"freshness":"FRESH","line1":"1 63030U 25034B   26145.06438794  .00011805  00000+0  40996-3 0  9990","line2":"2 63030  53.1590 276.6167 0001159 101.4700 258.6431 15.30207413 70597","mean_motion":15.30207413,"eccentricity":0.0001159,"inclination_deg":53.159,"raan_deg":276.6167,"arg_perigee_deg":101.47,"mean_anomaly_deg":258.6431,"bstar":0.00040996,"rev_number":7059,"period_min":94.10488981862,"perigee_km":474.39863468734,"apogee_km":475.98723656642,"semimajor_km":6853.3299356269,"source":"CELESTRAK","updated_at":"2026-05-25T13:38:19.865180Z"}}